User: anonymous   Login
Location: Whispering Pines Observatory
(39.4020°N, 104.7430°W)
Time: 09:34:27
(UTC-06:00)
Language:

MOS 1 Rocket - Orbit

View from above orbital plane
View from above orbital plane
View from above satellite
View from above satellite

Ground track
Ground track

The orbit data is extracted from the following two-line orbital elements,

1 17528U 87018B   18172.81706292 +.00000057 +00000-0 +22289-4 0  9990
2 17528 097.4849 093.8161 0151492 219.8709 208.9397 14.50858407632856
Epoch (UTC): 21 June 2018 19:36:34
Eccentricity: 0.0151492
inclination: 97.4849°
perigee height: 615 km
apogee height: 830 km
right ascension of ascending node: 93.8161°
argument of perigee: 219.8709°
revolutions per day: 14.50858407
mean anomaly at epoch: 208.9397°
orbit number at epoch: 63285

The dashed part of the orbit path shows where the satellite is in the earth's shadow,  

DLR